Regional Weather Roundup
Issued by NWS Kansas City/Pleasant Hill, MO

Home | Current Version | Previous Version | Graphics & Text | Print | Product List | Glossary Off
Versions: 1 2 3 4 5 6 7 8 9 10 11 12 13 14 15 16 17 18 19 20 21 22 23 24 25 26 27 28 29 30 31 32 33 34 35 36 37 38 39 40 41 42 43 44 45 46 47 48 49 50

000
ASUS43 KEAX 182011
RWREAX

WEATHER ROUNDUP FOR EASTERN KANSAS AND NORTHWEST MISSOURI
NATIONAL WEATHER SERVICE KANSAS CITY/PLEASANT HILL MO
300 PM CDT FRI APR 18 2014

KSZ040-057-103>105-MOZ028-029-037-043-182100-
...KANSAS CITY METROPOLITAN AREA...

CITY           SKY/WX    TMP DP  RH WIND       PRES   REMARKS
K.C. INTL      MOSUNNY   66  39  37 VRB3      30.24F
K.C. DOWNTOWN  SUNNY     68  40  35 S9        30.23F
LEES SUMMIT    SUNNY     65  42  43 MISG      30.25F
OLATHE - IXD   SUNNY     66  41  40 VRB3G16   30.24F
OLATHE - OJC   SUNNY     64  42  44 S7        30.24F
LAWRENCE       SUNNY     68  42  38 VRB7      30.23F

$$

MOZ001>008-011>017-020>025-030>033-038>040-044>046-053-054-182100-
...NORTHERN AND CENTRAL MISSOURI...

CITY           SKY/WX    TMP DP  RH WIND       PRES   REMARKS
ST. JOSEPH     SUNNY     67  38  34 S14       30.23F
MOSBY          FAIR      64  41  42 S3        30.24F
WARRENSBURG    SUNNY    N/A N/A N/A E5        30.25F
WHITEMAN AFB   MOSUNNY   65  40  39 VRB2      30.25F
CLINTON        SUNNY     66  45  45 CALM      30.25F
SEDALIA        SUNNY     67  44  43 E3        30.27F
WARSAW         NOT AVBL
MARSHALL         N/A     66  45  45 NE3       30.30
CHILLICOTHE      N/A     64  42  44 SE8G17    30.27F
MOBERLY        SUNNY     68  39  34 CALM      30.28F
KIRKSVILLE     SUNNY     64  36  35 SE7       30.28F

$$

MOZ041-047>049-056>058-063>065-088>090-097-182100-
...EASTERN AND SOUTHERN MISSOURI...

CITY           SKY/WX    TMP DP  RH WIND       PRES   REMARKS
ST. LOUIS INTL MOSUNNY   69  40  34 N7        30.27F
SPIRIT OF STL  SUNNY     67  41  38 E5        30.26F
COLUMBIA       SUNNY     68  43  40 VRB5      30.26F
JEFFERSON CITY SUNNY     67  41  38 S5        30.25F
MEXICO         SUNNY     64  43  45 S3        30.28F
HANNIBAL       SUNNY     68  27  21 S3        30.28F
ROLLA          SUNNY     69  42  37 W5        30.24F
LEBANON        SUNNY     72  36  26 E5        30.23F
OSAGE BEACH    SUNNY     68  39  34 N5        30.26F
SPRINGFIELD    MOSUNNY   70  38  31 S7        30.22F
BRANSON        MOSUNNY   70  36  28 E9G16     30.23F
NEVADA         SUNNY     68  41  37 CALM      30.24F
JOPLIN         SUNNY     71  41  33 VRB5      30.22F
WEST PLAINS    MOSUNNY   71  41  33 NE9       30.22F

$$

IAZ060-094-KSZ022-034>040-054-083-096-NEZ052-066-093-182100-
...KANSAS...SOUTHEAST NEBRASKA AND IOWA...

CITY           SKY/WX    TMP DP  RH WIND       PRES   REMARKS
TOPEKA         SUNNY     69  41  36 E13G20    30.22F
MANHATTAN      SUNNY     69  41  36 S13G24    30.18F
EMPORIA        SUNNY     67  41  38 SE16G23   30.20F
CHANUTE        SUNNY     68  41  37 E8        30.23F
WICHITA        MOSUNNY   68  43  40 SE13      30.18F
OMAHA          SUNNY     66  35  31 S21G29    30.17F
LINCOLN        SUNNY     71  39  31 S17G30    30.14F
LAMONI         SUNNY     63  35  35 SE10G17   30.25F
DES MOINES     MOSUNNY   63  32  31 SE10      30.26F

$$




USA.gov is the U.S. government's official web portal to all federal, state and local government web resources and services.